Location: Clanezzo
(45.7500°N, 9.6000°E)
Time: 23:01:16
(UTC+00:00)

Cosmos 1602 - Pass Details

Date: 12 May 2021
Orbit: 514 x 532 km, 82.5° (Epoch: 23 June)

Event Time Altitude Azimuth Distance (km) Brightness Sun altitude
Rises 20:07:36 0° 346° (NNW) 2,659 8.4 -12.8°
Reaches altitude 10° 20:09:47 10° 341° (NNW) 1,768 7.5 -13.0°
Maximum altitude 20:13:33 51° 265° (W) 665 4.5 -13.5°
Drops below altitude 10° 20:17:19 10° 190° (S) 1,764 6.1 -14.0°
Enters shadow 20:17:20 10° 189° (S) 1,776 6.1 -14.0°
